Date_Time,Julian_Date,Latitude,Longitude,Instrument_Depth,U,V,Speed,Direction
(yyyy-mm-dd hh:mn:ss UTC),(JD),(+ deg. North),(+ deg. East),(m),(cm/s),(cm/s),(cm/s),(deg True)
1982-09-15 17:30:00 UTC,2445228.229167,28.7317,-95.2428,0109,-13.99,0.49,14.0000,272.0000
1982-09-15 18:00:00 UTC,2445228.250000,28.7317,-95.2428,0109,-9.99,0.35,10.0000,272.0000
1982-09-15 18:30:00 UTC,2445228.270833,28.7317,-95.2428,0109,-5.00,-0.09,5.0000,269.0000
1982-09-15 19:00:00 UTC,2445228.291667,28.7317,-95.2428,0109,-1.81,-0.85,2.0000,245.0000
1982-09-15 19:30:00 UTC,2445228.312500,28.7317,-95.2428,0109,-2.18,-3.35,4.0000,213.0000
1982-09-15 20:00:00 UTC,2445228.333333,28.7317,-95.2428,0109,-4.36,-7.87,9.0000,209.0000
1982-09-15 20:30:00 UTC,2445228.354167,28.7317,-95.2428,0109,-5.26,-10.79,12.0000,206.0000
1982-09-15 21:00:00 UTC,2445228.375000,28.7317,-95.2428,0109,-5.70,-11.68,13.0000,206.0000
1982-09-15 21:30:00 UTC,2445228.395833,28.7317,-95.2428,0109,-7.01,-14.38,16.0000,206.0000
1982-09-15 22:00:00 UTC,2445228.416667,28.7317,-95.2428,0109,-8.77,-17.98,20.0000,206.0000
1982-09-15 22:30:00 UTC,2445228.437500,28.7317,-95.2428,0109,-10.52,-21.57,24.0000,206.0000
1982-09-15 23:00:00 UTC,2445228.458333,28.7317,-95.2428,0109,-12.26,-26.28,29.0000,205.0000
1982-09-15 23:30:00 UTC,2445228.479167,28.7317,-95.2428,0109,-10.60,-29.13,31.0000,200.0000
1982-09-16 00:00:00 UTC,2445228.500000,28.7317,-95.2428,0109,-6.97,-30.21,31.0000,193.0000
1982-09-16 00:30:00 UTC,2445228.520833,28.7317,-95.2428,0109,-5.72,-29.45,30.0000,191.0000
1982-09-16 01:00:00 UTC,2445228.541667,28.7317,-95.2428,0109,-8.48,-27.73,29.0000,197.0000
1982-09-16 01:30:00 UTC,2445228.562500,28.7317,-95.2428,0109,-11.83,-25.38,28.0000,205.0000
1982-09-16 02:00:00 UTC,2445228.583333,28.7317,-95.2428,0109,-14.84,-23.75,28.0000,212.0000
1982-09-16 02:30:00 UTC,2445228.604167,28.7317,-95.2428,0109,-17.62,-21.76,28.0000,219.0000
1982-09-16 03:00:00 UTC,2445228.625000,28.7317,-95.2428,0109,-20.14,-19.45,28.0000,226.0000
1982-09-16 03:30:00 UTC,2445228.645833,28.7317,-95.2428,0109,-21.28,-16.62,27.0000,232.0000
1982-09-16 04:00:00 UTC,2445228.666667,28.7317,-95.2428,0109,-21.03,-15.28,26.0000,234.0000
1982-09-16 04:30:00 UTC,2445228.687500,28.7317,-95.2428,0109,-19.90,-13.42,24.0000,236.0000
1982-09-16 05:00:00 UTC,2445228.708333,28.7317,-95.2428,0109,-18.66,-11.66,22.0000,238.0000
1982-09-16 05:30:00 UTC,2445228.729167,28.7317,-95.2428,0109,-17.49,-9.70,20.0000,241.0000
1982-09-16 06:00:00 UTC,2445228.750000,28.7317,-95.2428,0109,-16.93,-8.63,19.0000,243.0000
1982-09-16 06:30:00 UTC,2445228.770833,28.7317,-95.2428,0109,-15.89,-8.45,18.0000,242.0000
1982-09-16 07:00:00 UTC,2445228.791667,28.7317,-95.2428,0109,-13.99,-7.76,16.0000,241.0000
1982-09-16 07:30:00 UTC,2445228.812500,28.7317,-95.2428,0109,-13.24,-7.04,15.0000,242.0000
1982-09-16 08:00:00 UTC,2445228.833333,28.7317,-95.2428,0109,-14.83,-5.99,16.0000,248.0000
1982-09-16 08:30:00 UTC,2445228.854167,28.7317,-95.2428,0109,-15.52,-3.87,16.0000,256.0000
1982-09-16 09:00:00 UTC,2445228.875000,28.7317,-95.2428,0109,-15.80,-2.50,16.0000,261.0000
1982-09-16 09:30:00 UTC,2445228.895833,28.7317,-95.2428,0109,-15.91,-1.67,16.0000,264.0000
1982-09-16 10:00:00 UTC,2445228.916667,28.7317,-95.2428,0109,-15.00,-0.26,15.0000,269.0000
1982-09-16 10:30:00 UTC,2445228.937500,28.7317,-95.2428,0109,-14.00,-0.00,14.0000,270.0000
1982-09-16 11:00:00 UTC,2445228.958333,28.7317,-95.2428,0109,-12.99,-0.45,13.0000,268.0000
1982-09-16 11:30:00 UTC,2445228.979167,28.7317,-95.2428,0109,-12.99,0.45,13.0000,272.0000
1982-09-16 12:00:00 UTC,2445229.000000,28.7317,-95.2428,0109,-11.82,2.08,12.0000,280.0000
1982-09-16 12:30:00 UTC,2445229.020833,28.7317,-95.2428,0109,-9.34,3.58,10.0000,291.0000
1982-09-16 13:00:00 UTC,2445229.041667,28.7317,-95.2428,0109,-7.46,5.03,9.0000,304.0000
1982-09-16 13:30:00 UTC,2445229.062500,28.7317,-95.2428,0109,-6.82,7.31,10.0000,317.0000
1982-09-16 14:00:00 UTC,2445229.083333,28.7317,-95.2428,0109,-5.67,9.43,11.0000,329.0000
1982-09-16 14:30:00 UTC,2445229.104167,28.7317,-95.2428,0109,-4.50,11.13,12.0000,338.0000
1982-09-16 15:00:00 UTC,2445229.125000,28.7317,-95.2428,0109,-2.49,11.74,12.0000,348.0000
1982-09-16 15:30:00 UTC,2445229.145833,28.7317,-95.2428,0109,-0.68,12.98,13.0000,357.0000
1982-09-16 16:00:00 UTC,2445229.166667,28.7317,-95.2428,0109,0.98,13.97,14.0000,4.0000
1982-09-16 16:30:00 UTC,2445229.187500,28.7317,-95.2428,0109,2.50,15.80,16.0000,9.0000
1982-09-16 17:00:00 UTC,2445229.208333,28.7317,-95.2428,0109,4.35,17.47,18.0000,14.0000
1982-09-16 17:30:00 UTC,2445229.229167,28.7317,-95.2428,0109,7.53,19.61,21.0000,21.0000
1982-09-16 18:00:00 UTC,2445229.250000,28.7317,-95.2428,0109,9.99,19.60,22.0000,27.0000
1982-09-16 18:30:00 UTC,2445229.270833,28.7317,-95.2428,0109,13.19,18.84,23.0000,35.0000
1982-09-16 19:00:00 UTC,2445229.291667,28.7317,-95.2428,0109,14.43,16.60,22.0000,41.0000
1982-09-16 19:30:00 UTC,2445229.312500,28.7317,-95.2428,0109,14.85,14.85,21.0000,45.0000
1982-09-16 20:00:00 UTC,2445229.333333,28.7317,-95.2428,0109,15.32,12.86,20.0000,50.0000
1982-09-16 20:30:00 UTC,2445229.354167,28.7317,-95.2428,0109,14.57,8.76,17.0000,59.0000
1982-09-16 21:00:00 UTC,2445229.375000,28.7317,-95.2428,0109,12.50,3.58,13.0000,74.0000
1982-09-16 21:30:00 UTC,2445229.395833,28.7317,-95.2428,0109,8.86,-1.56,9.0000,100.0000
1982-09-16 22:00:00 UTC,2445229.416667,28.7317,-95.2428,0109,5.46,-5.85,8.0000,137.0000
1982-09-16 22:30:00 UTC,2445229.437500,28.7317,-95.2428,0109,3.58,-9.34,10.0000,159.0000
1982-09-16 23:00:00 UTC,2445229.458333,28.7317,-95.2428,0109,1.74,-9.85,10.0000,170.0000
1982-09-16 23:30:00 UTC,2445229.479167,28.7317,-95.2428,0109,0.38,-10.99,11.0000,178.0000
1982-09-17 00:00:00 UTC,2445229.500000,28.7317,-95.2428,0109,-1.05,-9.95,10.0000,186.0000
1982-09-17 00:30:00 UTC,2445229.520833,28.7317,-95.2428,0109,-2.42,-9.70,10.0000,194.0000
1982-09-17 01:00:00 UTC,2445229.541667,28.7317,-95.2428,0109,-3.40,-10.46,11.0000,198.0000
1982-09-17 01:30:00 UTC,2445229.562500,28.7317,-95.2428,0109,-4.50,-11.13,12.0000,202.0000
1982-09-17 02:00:00 UTC,2445229.583333,28.7317,-95.2428,0109,-6.57,-12.36,14.0000,208.0000
1982-09-17 02:30:00 UTC,2445229.604167,28.7317,-95.2428,0109,-8.03,-11.47,14.0000,215.0000
1982-09-17 03:00:00 UTC,2445229.625000,28.7317,-95.2428,0109,-8.62,-11.03,14.0000,218.0000
1982-09-17 03:30:00 UTC,2445229.645833,28.7317,-95.2428,0109,-9.00,-10.72,14.0000,220.0000
1982-09-17 04:00:00 UTC,2445229.666667,28.7317,-95.2428,0109,-10.24,-9.55,14.0000,227.0000
1982-09-17 04:30:00 UTC,2445229.687500,28.7317,-95.2428,0109,-13.71,-8.24,16.0000,239.0000
1982-09-17 05:00:00 UTC,2445229.708333,28.7317,-95.2428,0109,-17.74,-6.81,19.0000,249.0000
1982-09-17 05:30:00 UTC,2445229.729167,28.7317,-95.2428,0109,-18.26,-5.24,19.0000,254.0000
1982-09-17 06:00:00 UTC,2445229.750000,28.7317,-95.2428,0109,-15.88,-1.95,16.0000,263.0000
1982-09-17 06:30:00 UTC,2445229.770833,28.7317,-95.2428,0109,-15.88,1.95,16.0000,277.0000
1982-09-17 07:00:00 UTC,2445229.791667,28.7317,-95.2428,0109,-15.45,4.14,16.0000,285.0000
1982-09-17 07:30:00 UTC,2445229.812500,28.7317,-95.2428,0109,-15.30,4.68,16.0000,287.0000
1982-09-17 08:00:00 UTC,2445229.833333,28.7317,-95.2428,0109,-16.26,4.97,17.0000,287.0000
1982-09-17 08:30:00 UTC,2445229.854167,28.7317,-95.2428,0109,-16.17,5.25,17.0000,288.0000
1982-09-17 09:00:00 UTC,2445229.875000,28.7317,-95.2428,0109,-14.00,5.38,15.0000,291.0000
1982-09-17 09:30:00 UTC,2445229.895833,28.7317,-95.2428,0109,-10.50,5.82,12.0000,299.0000
1982-09-17 10:00:00 UTC,2445229.916667,28.7317,-95.2428,0109,-8.67,6.77,11.0000,308.0000
1982-09-17 10:30:00 UTC,2445229.937500,28.7317,-95.2428,0109,-7.99,6.02,10.0000,307.0000
1982-09-17 11:00:00 UTC,2445229.958333,28.7317,-95.2428,0109,-8.19,5.74,10.0000,305.0000
1982-09-17 11:30:00 UTC,2445229.979167,28.7317,-95.2428,0109,-7.19,5.42,9.0000,307.0000
1982-09-17 12:00:00 UTC,2445230.000000,28.7317,-95.2428,0109,-5.59,4.21,7.0000,307.0000
1982-09-17 12:30:00 UTC,2445230.020833,28.7317,-95.2428,0109,-4.85,3.53,6.0000,306.0000
1982-09-17 13:00:00 UTC,2445230.041667,28.7317,-95.2428,0109,-3.83,3.21,5.0000,310.0000
1982-09-17 13:30:00 UTC,2445230.062500,28.7317,-95.2428,0109,-1.93,2.30,3.0000,320.0000
1982-09-17 14:00:00 UTC,2445230.083333,28.7317,-95.2428,0109,-0.44,0.90,1.0000,334.0000
1982-09-17 14:30:00 UTC,2445230.104167,28.7317,-95.2428,0109,0.05,1.00,1.0000,3.0000
1982-09-17 15:00:00 UTC,2445230.125000,28.7317,-95.2428,0109,0.73,2.91,3.0000,14.0000
1982-09-17 15:30:00 UTC,2445230.145833,28.7317,-95.2428,0109,2.05,5.64,6.0000,20.0000
1982-09-17 16:00:00 UTC,2445230.166667,28.7317,-95.2428,0109,2.93,8.51,9.0000,19.0000
1982-09-17 16:30:00 UTC,2445230.187500,28.7317,-95.2428,0109,3.31,11.54,12.0000,16.0000
1982-09-17 17:00:00 UTC,2445230.208333,28.7317,-95.2428,0109,3.86,13.46,14.0000,16.0000
1982-09-17 17:30:00 UTC,2445230.229167,28.7317,-95.2428,0109,4.88,14.18,15.0000,19.0000
1982-09-17 18:00:00 UTC,2445230.250000,28.7317,-95.2428,0109,5.86,13.81,15.0000,23.0000
1982-09-17 18:30:00 UTC,2445230.270833,28.7317,-95.2428,0109,7.73,12.86,15.0000,31.0000
1982-09-17 19:00:00 UTC,2445230.291667,28.7317,-95.2428,0109,10.23,10.97,15.0000,43.0000
1982-09-17 19:30:00 UTC,2445230.312500,28.7317,-95.2428,0109,10.88,8.81,14.0000,51.0000
1982-09-17 20:00:00 UTC,2445230.333333,28.7317,-95.2428,0109,11.74,7.62,14.0000,57.0000
1982-09-17 20:30:00 UTC,2445230.354167,28.7317,-95.2428,0109,11.58,5.90,13.0000,63.0000
1982-09-17 21:00:00 UTC,2445230.375000,28.7317,-95.2428,0109,10.13,4.30,11.0000,67.0000
1982-09-17 21:30:00 UTC,2445230.395833,28.7317,-95.2428,0109,7.85,1.53,8.0000,79.0000
1982-09-17 22:00:00 UTC,2445230.416667,28.7317,-95.2428,0109,6.87,-1.34,7.0000,101.0000
1982-09-17 22:30:00 UTC,2445230.437500,28.7317,-95.2428,0109,6.00,-3.61,7.0000,121.0000
1982-09-17 23:00:00 UTC,2445230.458333,28.7317,-95.2428,0109,5.14,-6.13,8.0000,140.0000
1982-09-17 23:30:00 UTC,2445230.479167,28.7317,-95.2428,0109,3.23,-8.40,9.0000,159.0000
1982-09-18 00:00:00 UTC,2445230.500000,28.7317,-95.2428,0109,0.77,-10.97,11.0000,176.0000
1982-09-18 00:30:00 UTC,2445230.520833,28.7317,-95.2428,0109,-1.67,-11.88,12.0000,188.0000
1982-09-18 01:00:00 UTC,2445230.541667,28.7317,-95.2428,0109,-4.33,-13.31,14.0000,198.0000
1982-09-18 01:30:00 UTC,2445230.562500,28.7317,-95.2428,0109,-6.36,-12.47,14.0000,207.0000
1982-09-18 02:00:00 UTC,2445230.583333,28.7317,-95.2428,0109,-8.60,-12.29,15.0000,215.0000
1982-09-18 02:30:00 UTC,2445230.604167,28.7317,-95.2428,0109,-9.00,-10.72,14.0000,220.0000
1982-09-18 03:00:00 UTC,2445230.625000,28.7317,-95.2428,0109,-9.73,-10.07,14.0000,224.0000
1982-09-18 03:30:00 UTC,2445230.645833,28.7317,-95.2428,0109,-9.19,-7.71,12.0000,230.0000
1982-09-18 04:00:00 UTC,2445230.666667,28.7317,-95.2428,0109,-10.60,-5.63,12.0000,242.0000
1982-09-18 04:30:00 UTC,2445230.687500,28.7317,-95.2428,0109,-11.48,-3.51,12.0000,253.0000
1982-09-18 05:00:00 UTC,2445230.708333,28.7317,-95.2428,0109,-11.93,-1.25,12.0000,264.0000
1982-09-18 05:30:00 UTC,2445230.729167,28.7317,-95.2428,0109,-10.92,1.34,11.0000,277.0000
1982-09-18 06:00:00 UTC,2445230.750000,28.7317,-95.2428,0109,-10.05,4.47,11.0000,294.0000
1982-09-18 06:30:00 UTC,2445230.770833,28.7317,-95.2428,0109,-8.43,7.07,11.0000,310.0000
1982-09-18 07:00:00 UTC,2445230.791667,28.7317,-95.2428,0109,-6.92,8.55,11.0000,321.0000
1982-09-18 07:30:00 UTC,2445230.812500,28.7317,-95.2428,0109,-5.30,8.48,10.0000,328.0000
1982-09-18 08:00:00 UTC,2445230.833333,28.7317,-95.2428,0109,-4.85,8.75,10.0000,331.0000
1982-09-18 08:30:00 UTC,2445230.854167,28.7317,-95.2428,0109,-5.45,8.39,10.0000,327.0000
1982-09-18 09:00:00 UTC,2445230.875000,28.7317,-95.2428,0109,-7.87,9.06,12.0000,319.0000
1982-09-18 09:30:00 UTC,2445230.895833,28.7317,-95.2428,0109,-10.40,9.37,14.0000,312.0000
1982-09-18 10:00:00 UTC,2445230.916667,28.7317,-95.2428,0109,-10.40,9.37,14.0000,312.0000
1982-09-18 10:30:00 UTC,2445230.937500,28.7317,-95.2428,0109,-9.03,9.35,13.0000,316.0000
1982-09-18 11:00:00 UTC,2445230.958333,28.7317,-95.2428,0109,-8.53,9.81,13.0000,319.0000
1982-09-18 11:30:00 UTC,2445230.979167,28.7317,-95.2428,0109,-9.37,10.40,14.0000,318.0000
1982-09-18 12:00:00 UTC,2445231.000000,28.7317,-95.2428,0109,-10.61,10.61,15.0000,315.0000
1982-09-18 12:30:00 UTC,2445231.020833,28.7317,-95.2428,0109,-9.73,10.07,14.0000,316.0000
1982-09-18 13:00:00 UTC,2445231.041667,28.7317,-95.2428,0109,-7.55,9.33,12.0000,321.0000
1982-09-18 13:30:00 UTC,2445231.062500,28.7317,-95.2428,0109,-5.15,8.57,10.0000,329.0000
1982-09-18 14:00:00 UTC,2445231.083333,28.7317,-95.2428,0109,-3.52,8.28,9.0000,337.0000
1982-09-18 14:30:00 UTC,2445231.104167,28.7317,-95.2428,0109,-2.02,8.77,9.0000,347.0000
1982-09-18 15:00:00 UTC,2445231.125000,28.7317,-95.2428,0109,-0.31,8.99,9.0000,358.0000
1982-09-18 15:30:00 UTC,2445231.145833,28.7317,-95.2428,0109,1.05,9.95,10.0000,6.0000
1982-09-18 16:00:00 UTC,2445231.166667,28.7317,-95.2428,0109,2.47,10.72,11.0000,13.0000
1982-09-18 16:30:00 UTC,2445231.187500,28.7317,-95.2428,0109,3.03,10.57,11.0000,16.0000
1982-09-18 17:00:00 UTC,2445231.208333,28.7317,-95.2428,0109,3.58,10.40,11.0000,19.0000
1982-09-18 17:30:00 UTC,2445231.229167,28.7317,-95.2428,0109,3.37,8.34,9.0000,22.0000
1982-09-18 18:00:00 UTC,2445231.250000,28.7317,-95.2428,0109,3.38,7.25,8.0000,25.0000
1982-09-18 18:30:00 UTC,2445231.270833,28.7317,-95.2428,0109,4.12,6.86,8.0000,31.0000
1982-09-18 19:00:00 UTC,2445231.291667,28.7317,-95.2428,0109,5.74,8.19,10.0000,35.0000
1982-09-18 19:30:00 UTC,2445231.312500,28.7317,-95.2428,0109,5.66,6.99,9.0000,39.0000
1982-09-18 20:00:00 UTC,2445231.333333,28.7317,-95.2428,0109,5.12,4.77,7.0000,47.0000
1982-09-18 20:30:00 UTC,2445231.354167,28.7317,-95.2428,0109,5.14,3.09,6.0000,59.0000
1982-09-18 21:00:00 UTC,2445231.375000,28.7317,-95.2428,0109,5.77,1.65,6.0000,74.0000
1982-09-18 21:30:00 UTC,2445231.395833,28.7317,-95.2428,0109,6.00,0.00,6.0000,90.0000
1982-09-18 22:00:00 UTC,2445231.416667,28.7317,-95.2428,0109,4.49,-2.19,5.0000,116.0000
1982-09-18 22:30:00 UTC,2445231.437500,28.7317,-95.2428,0109,3.39,-6.12,7.0000,151.0000
1982-09-18 23:00:00 UTC,2445231.458333,28.7317,-95.2428,0109,1.05,-9.95,10.0000,174.0000
1982-09-18 23:30:00 UTC,2445231.479167,28.7317,-95.2428,0109,-1.81,-12.87,13.0000,188.0000
1982-09-19 00:00:00 UTC,2445231.500000,28.7317,-95.2428,0109,-4.33,-13.31,14.0000,198.0000
1982-09-19 00:30:00 UTC,2445231.520833,28.7317,-95.2428,0109,-6.91,-15.53,17.0000,204.0000
1982-09-19 01:00:00 UTC,2445231.541667,28.7317,-95.2428,0109,-10.18,-18.37,21.0000,209.0000
1982-09-19 01:30:00 UTC,2445231.562500,28.7317,-95.2428,0109,-13.84,-18.37,23.0000,217.0000
1982-09-19 02:00:00 UTC,2445231.583333,28.7317,-95.2428,0109,-15.00,-16.09,22.0000,223.0000
1982-09-19 02:30:00 UTC,2445231.604167,28.7317,-95.2428,0109,-15.36,-14.32,21.0000,227.0000
1982-09-19 03:00:00 UTC,2445231.625000,28.7317,-95.2428,0109,-14.97,-11.70,19.0000,232.0000
1982-09-19 03:30:00 UTC,2445231.645833,28.7317,-95.2428,0109,-16.29,-9.79,19.0000,239.0000
1982-09-19 04:00:00 UTC,2445231.666667,28.7317,-95.2428,0109,-16.57,-7.03,18.0000,247.0000
1982-09-19 04:30:00 UTC,2445231.687500,28.7317,-95.2428,0109,-15.45,-4.14,16.0000,255.0000
1982-09-19 05:00:00 UTC,2445231.708333,28.7317,-95.2428,0109,-12.93,-1.36,13.0000,264.0000
1982-09-19 05:30:00 UTC,2445231.729167,28.7317,-95.2428,0109,-10.92,1.34,11.0000,277.0000
1982-09-19 06:00:00 UTC,2445231.750000,28.7317,-95.2428,0109,-10.27,3.94,11.0000,291.0000
1982-09-19 06:30:00 UTC,2445231.770833,28.7317,-95.2428,0109,-9.95,6.71,12.0000,304.0000
1982-09-19 07:00:00 UTC,2445231.791667,28.7317,-95.2428,0109,-8.78,8.18,12.0000,313.0000
1982-09-19 07:30:00 UTC,2445231.812500,28.7317,-95.2428,0109,-8.03,8.92,12.0000,318.0000
1982-09-19 08:00:00 UTC,2445231.833333,28.7317,-95.2428,0109,-6.47,8.90,11.0000,324.0000
1982-09-19 08:30:00 UTC,2445231.854167,28.7317,-95.2428,0109,-5.99,9.23,11.0000,327.0000
1982-09-19 09:00:00 UTC,2445231.875000,28.7317,-95.2428,0109,-7.39,9.46,12.0000,322.0000
1982-09-19 09:30:00 UTC,2445231.895833,28.7317,-95.2428,0109,-8.78,8.18,12.0000,313.0000
1982-09-19 10:00:00 UTC,2445231.916667,28.7317,-95.2428,0109,-9.83,6.88,12.0000,305.0000
1982-09-19 10:30:00 UTC,2445231.937500,28.7317,-95.2428,0109,-11.26,6.50,13.0000,300.0000
1982-09-19 11:00:00 UTC,2445231.958333,28.7317,-95.2428,0109,-12.47,6.36,14.0000,297.0000
1982-09-19 11:30:00 UTC,2445231.979167,28.7317,-95.2428,0109,-11.68,5.70,13.0000,296.0000
1982-09-19 12:00:00 UTC,2445232.000000,28.7317,-95.2428,0109,-11.97,5.08,13.0000,293.0000
1982-09-19 12:30:00 UTC,2445232.020833,28.7317,-95.2428,0109,-11.97,5.08,13.0000,293.0000
1982-09-19 13:00:00 UTC,2445232.041667,28.7317,-95.2428,0109,-11.88,5.29,13.0000,294.0000
1982-09-19 13:30:00 UTC,2445232.062500,28.7317,-95.2428,0109,-10.96,4.88,12.0000,294.0000
1982-09-19 14:00:00 UTC,2445232.083333,28.7317,-95.2428,0109,-10.88,5.07,12.0000,295.0000
1982-09-19 14:30:00 UTC,2445232.104167,28.7317,-95.2428,0109,-11.48,6.10,13.0000,298.0000
1982-09-19 15:00:00 UTC,2445232.125000,28.7317,-95.2428,0109,-10.78,7.27,13.0000,304.0000
1982-09-19 15:30:00 UTC,2445232.145833,28.7317,-95.2428,0109,-8.78,8.18,12.0000,313.0000
1982-09-19 16:00:00 UTC,2445232.166667,28.7317,-95.2428,0109,-6.62,8.78,11.0000,323.0000
1982-09-19 16:30:00 UTC,2445232.187500,28.7317,-95.2428,0109,-4.54,8.91,10.0000,333.0000
1982-09-19 17:00:00 UTC,2445232.208333,28.7317,-95.2428,0109,-2.63,8.61,9.0000,343.0000
1982-09-19 17:30:00 UTC,2445232.229167,28.7317,-95.2428,0109,-1.25,8.91,9.0000,352.0000
1982-09-19 18:00:00 UTC,2445232.250000,28.7317,-95.2428,0109,-0.87,9.96,10.0000,355.0000
1982-09-19 18:30:00 UTC,2445232.270833,28.7317,-95.2428,0109,-1.05,11.95,12.0000,355.0000
1982-09-19 19:00:00 UTC,2445232.291667,28.7317,-95.2428,0109,-1.05,11.95,12.0000,355.0000
1982-09-19 19:30:00 UTC,2445232.312500,28.7317,-95.2428,0109,-0.96,10.96,11.0000,355.0000
1982-09-19 20:00:00 UTC,2445232.333333,28.7317,-95.2428,0109,-1.34,10.92,11.0000,353.0000
1982-09-19 20:30:00 UTC,2445232.354167,28.7317,-95.2428,0109,-1.22,9.93,10.0000,353.0000
1982-09-19 21:00:00 UTC,2445232.375000,28.7317,-95.2428,0109,-0.47,8.99,9.0000,357.0000
1982-09-19 21:30:00 UTC,2445232.395833,28.7317,-95.2428,0109,1.25,7.90,8.0000,9.0000
1982-09-19 22:00:00 UTC,2445232.416667,28.7317,-95.2428,0109,3.39,6.12,7.0000,29.0000
1982-09-19 22:30:00 UTC,2445232.437500,28.7317,-95.2428,0109,4.46,4.01,6.0000,48.0000
1982-09-19 23:00:00 UTC,2445232.458333,28.7317,-95.2428,0109,4.76,1.55,5.0000,72.0000
1982-09-19 23:30:00 UTC,2445232.479167,28.7317,-95.2428,0109,4.95,-0.70,5.0000,98.0000
1982-09-20 00:00:00 UTC,2445232.500000,28.7317,-95.2428,0109,2.65,-1.41,3.0000,118.0000
1982-09-20 00:30:00 UTC,2445232.520833,28.7317,-95.2428,0109,0.67,-2.92,3.0000,167.0000
1982-09-20 01:00:00 UTC,2445232.541667,28.7317,-95.2428,0109,-0.52,-4.97,5.0000,186.0000
1982-09-20 01:30:00 UTC,2445232.562500,28.7317,-95.2428,0109,-1.11,-7.92,8.0000,188.0000
1982-09-20 02:00:00 UTC,2445232.583333,28.7317,-95.2428,0109,-2.02,-8.77,9.0000,193.0000
1982-09-20 02:30:00 UTC,2445232.604167,28.7317,-95.2428,0109,-2.92,-9.56,10.0000,197.0000
1982-09-20 03:00:00 UTC,2445232.625000,28.7317,-95.2428,0109,-3.42,-9.40,10.0000,200.0000
1982-09-20 03:30:00 UTC,2445232.645833,28.7317,-95.2428,0109,-3.18,-6.24,7.0000,207.0000
1982-09-20 04:00:00 UTC,2445232.666667,28.7317,-95.2428,0109,-2.12,-3.39,4.0000,212.0000
1982-09-20 04:30:00 UTC,2445232.687500,28.7317,-95.2428,0109,-0.98,-2.84,3.0000,199.0000
1982-09-20 05:00:00 UTC,2445232.708333,28.7317,-95.2428,0109,-1.17,-3.83,4.0000,197.0000
1982-09-20 05:30:00 UTC,2445232.729167,28.7317,-95.2428,0109,-1.43,-3.73,4.0000,201.0000
1982-09-20 06:00:00 UTC,2445232.750000,28.7317,-95.2428,0109,-1.12,-2.78,3.0000,202.0000
1982-09-20 06:30:00 UTC,2445232.770833,28.7317,-95.2428,0109,-1.32,-2.70,3.0000,206.0000
1982-09-20 07:00:00 UTC,2445232.791667,28.7317,-95.2428,0109,-1.81,-2.40,3.0000,217.0000
1982-09-20 07:30:00 UTC,2445232.812500,28.7317,-95.2428,0109,-2.57,-1.55,3.0000,239.0000
1982-09-20 08:00:00 UTC,2445232.833333,28.7317,-95.2428,0109,-2.98,-0.37,3.0000,263.0000
1982-09-20 08:30:00 UTC,2445232.854167,28.7317,-95.2428,0109,-3.00,-0.05,3.0000,269.0000
1982-09-20 09:00:00 UTC,2445232.875000,28.7317,-95.2428,0109,-2.93,-0.62,3.0000,258.0000
1982-09-20 09:30:00 UTC,2445232.895833,28.7317,-95.2428,0109,-3.39,-2.12,4.0000,238.0000
1982-09-20 10:00:00 UTC,2445232.916667,28.7317,-95.2428,0109,-4.91,-3.44,6.0000,235.0000
1982-09-20 10:30:00 UTC,2445232.937500,28.7317,-95.2428,0109,-8.57,-5.15,10.0000,239.0000
1982-09-20 11:00:00 UTC,2445232.958333,28.7317,-95.2428,0109,-12.12,-7.00,14.0000,240.0000
1982-09-20 11:30:00 UTC,2445232.979167,28.7317,-95.2428,0109,-11.48,-6.10,13.0000,242.0000
1982-09-20 12:00:00 UTC,2445233.000000,28.7317,-95.2428,0109,-9.97,-4.65,11.0000,245.0000
1982-09-20 12:30:00 UTC,2445233.020833,28.7317,-95.2428,0109,-12.36,-4.02,13.0000,252.0000
1982-09-20 13:00:00 UTC,2445233.041667,28.7317,-95.2428,0109,-19.49,-4.50,20.0000,257.0000
1982-09-20 13:30:00 UTC,2445233.062500,28.7317,-95.2428,0109,-19.75,-3.13,20.0000,261.0000
1982-09-20 14:00:00 UTC,2445233.083333,28.7317,-95.2428,0109,-12.90,-1.58,13.0000,263.0000
1982-09-20 14:30:00 UTC,2445233.104167,28.7317,-95.2428,0109,-7.96,-0.84,8.0000,264.0000
1982-09-20 15:00:00 UTC,2445233.125000,28.7317,-95.2428,0109,-5.99,-0.31,6.0000,267.0000
1982-09-20 15:30:00 UTC,2445233.145833,28.7317,-95.2428,0109,-4.00,0.07,4.0000,271.0000
1982-09-20 16:00:00 UTC,2445233.166667,28.7317,-95.2428,0109,-3.97,0.49,4.0000,277.0000
1982-09-20 16:30:00 UTC,2445233.187500,28.7317,-95.2428,0109,-3.63,1.69,4.0000,295.0000
1982-09-20 17:00:00 UTC,2445233.208333,28.7317,-95.2428,0109,-3.72,3.35,5.0000,312.0000
1982-09-20 17:30:00 UTC,2445233.229167,28.7317,-95.2428,0109,-3.00,5.20,6.0000,330.0000
1982-09-20 18:00:00 UTC,2445233.250000,28.7317,-95.2428,0109,-0.73,6.96,7.0000,354.0000
1982-09-20 18:30:00 UTC,2445233.270833,28.7317,-95.2428,0109,0.97,7.94,8.0000,7.0000
1982-09-20 19:00:00 UTC,2445233.291667,28.7317,-95.2428,0109,2.02,8.77,9.0000,13.0000
1982-09-20 19:30:00 UTC,2445233.312500,28.7317,-95.2428,0109,2.92,9.56,10.0000,17.0000
1982-09-20 20:00:00 UTC,2445233.333333,28.7317,-95.2428,0109,3.76,10.34,11.0000,20.0000
1982-09-20 20:30:00 UTC,2445233.354167,28.7317,-95.2428,0109,3.94,10.27,11.0000,21.0000
1982-09-20 21:00:00 UTC,2445233.375000,28.7317,-95.2428,0109,3.58,9.34,10.0000,21.0000
1982-09-20 21:30:00 UTC,2445233.395833,28.7317,-95.2428,0109,3.00,7.42,8.0000,22.0000
1982-09-20 22:00:00 UTC,2445233.416667,28.7317,-95.2428,0109,2.63,5.39,6.0000,26.0000
1982-09-20 22:30:00 UTC,2445233.437500,28.7317,-95.2428,0109,3.21,3.83,5.0000,40.0000
1982-09-20 23:00:00 UTC,2445233.458333,28.7317,-95.2428,0109,4.97,3.36,6.0000,56.0000
1982-09-20 23:30:00 UTC,2445233.479167,28.7317,-95.2428,0109,6.12,3.39,7.0000,61.0000
1982-09-21 00:00:00 UTC,2445233.500000,28.7317,-95.2428,0109,5.56,2.25,6.0000,68.0000
1982-09-21 00:30:00 UTC,2445233.520833,28.7317,-95.2428,0109,4.96,0.61,5.0000,83.0000
1982-09-21 01:00:00 UTC,2445233.541667,28.7317,-95.2428,0109,5.98,-0.52,6.0000,95.0000
1982-09-21 01:30:00 UTC,2445233.562500,28.7317,-95.2428,0109,4.91,-0.95,5.0000,101.0000
1982-09-21 02:00:00 UTC,2445233.583333,28.7317,-95.2428,0109,4.57,-2.03,5.0000,114.0000
1982-09-21 02:30:00 UTC,2445233.604167,28.7317,-95.2428,0109,3.47,-3.60,5.0000,136.0000
1982-09-21 03:00:00 UTC,2445233.625000,28.7317,-95.2428,0109,2.25,-5.56,6.0000,158.0000
1982-09-21 03:30:00 UTC,2445233.645833,28.7317,-95.2428,0109,1.53,-7.85,8.0000,169.0000
1982-09-21 04:00:00 UTC,2445233.666667,28.7317,-95.2428,0109,1.41,-8.89,9.0000,171.0000
1982-09-21 04:30:00 UTC,2445233.687500,28.7317,-95.2428,0109,1.88,-11.85,12.0000,171.0000
1982-09-21 05:00:00 UTC,2445233.708333,28.7317,-95.2428,0109,1.31,-14.94,15.0000,175.0000
1982-09-21 05:30:00 UTC,2445233.729167,28.7317,-95.2428,0109,0.28,-16.00,16.0000,179.0000
1982-09-21 06:00:00 UTC,2445233.750000,28.7317,-95.2428,0109,-0.59,-16.99,17.0000,182.0000
1982-09-21 06:30:00 UTC,2445233.770833,28.7317,-95.2428,0109,-1.57,-17.93,18.0000,185.0000